Location: Unspecified
(0.0000°N, 0.0000°E)
Time: 20:31:11
(UTC+00:00)

INTEGRAL - Pass Details

Date: 16 January 2022
Orbit: 2363 x 147089 km, 74.6° (Epoch: 26 May)

Event Time Altitude Azimuth Distance (km) Brightness Sun altitude
Rises 17:03:26 0° 120° (ESE) 7,253 7.1 15.4°
Reaches altitude 10° 17:21:37 10° 70° (ENE) 11,029 7.8 11.2°
Drops below altitude 10° 17:32:10 10° 56° (NE) 14,050 8.3 8.7°
Maximum altitude 06:04:17 17° 356° (N) 114,196 13.2 -1.3°
Sets 11:33:46 0° 335° (NNW) 135,503 13.6 67.3°
